Powrót do katalogu

H-2A DEB

AktywnyHEO
NORAD 28243·DEBRIS·🇯🇵 Japan

Wystrzelony Feb 4, 2002 z Tanegashima Space Center

Loading…

Następne Przeloty (najbliższe 24 godziny)

TLE

ŚwieżeSource: Space-Track

Epoka: Sep 14, 2026, 02:38 UTC

1 28243U 02003E   26257.11016414  .00002169  00000-0  31134-2 0  9996
2 28243  28.4225 128.5863 7046856 145.6716 291.8102  2.51545234  7060

Śledź H-2A DEB w czasie rzeczywistym z AllMySat

Download on the App Store